Butte, MT

5:15 PM MDT on July 20, 2017 (GMT -0600)
Mooney

Weather History for KBTM - October, 2013

Change the Weather History Date:

Saturday, October 5, 2013

  Actual Average Record
Temperature  
Mean Temperature 38 °F 44 °F  
Max Temperature 55 °F 60 °F 85 °F (1918)
Min Temperature 20 °F 29 °F 12 °F (2001)
Degree Days  
Heating Degree Days 27 20  
Month to date heating degree days 139 98  
Since 1 July heating degree days 514 719  
Cooling Degree Days 0 0  
Month to date cooling degree days 0 0  
Year to date cooling degree days 104 81  
Moisture  
Dew Point 24 °F    
Average Humidity 62    
Maximum Humidity 92    
Minimum Humidity 32    
Precipitation  
Precipitation 0.00 in 0.03 in 0.67 in (1967)
Month to date precipitation 0.06 0.15  
Year to date precipitation 10.34 11.03  
Sea Level Pressure  
Sea Level Pressure 30.47 in    
Wind  
Wind Speed 3 mph (East)    
Max Wind Speed 9 mph    
Max Gust Speed 13 mph    
Visibility 10 miles    
Events      
T = Trace of Precipitation, MM = Missing Value Source: NWS Daily Summary

Daily Weather History Graph

Daily Weather History Graph

Search for Another Location

Airport or City:

Trip Planner

Search our weather history database for the weather conditions in past years. The results will help you decide how hot, cold, wet, or windy it might be!

Date:

Astronomy

Oct. 05, 2013 Rise Set
Actual Time 7:33 AM MDT 7:01 PM MDT
Civil Twilight 7:04 AM MDT 7:31 PM MDT
Nautical Twilight 6:29 AM MDT 8:06 PM MDT
Astronomical Twilight 5:54 AM MDT 8:40 PM MDT
Moon 8:21 AM MDT (10/5) 7:17 PM MDT (10/5)
Length of Visible Light 12h 27m
Length of Day
11h 27m
New Moon, 1% of the Moon is Illuminated
Oct 5
New Moon
Oct 11
First Quarter
Oct 18
Full
Oct 26
Last Quarter
Nov 3
New

Hourly Weather History & Observations

Time (MDT) Temp. Windchill Dew Point Humidity Pressure Visibility Wind Dir Wind Speed Gust Speed Precip Events Conditions
12:53 AM 26.1 °F 21.9 °F 23.0 °F 88% 30.52 in 10.0 mi SE 3.5 mph - N/A   Clear
1:53 AM 24.1 °F - 21.9 °F 91% 30.52 in 10.0 mi Calm Calm - N/A   Clear
2:53 AM 23.0 °F 18.4 °F 19.9 °F 88% 30.51 in 10.0 mi SE 3.5 mph - N/A   Clear
3:53 AM 21.9 °F 14.5 °F 19.0 °F 89% 30.50 in 10.0 mi SSE 5.8 mph - N/A   Clear
4:53 AM 21.9 °F - 18.0 °F 85% 30.48 in 10.0 mi Calm Calm - N/A   Clear
5:53 AM 21.0 °F - 19.0 °F 92% 30.49 in 10.0 mi Calm Calm - N/A   Clear
6:53 AM 19.9 °F - 18.0 °F 92% 30.52 in 10.0 mi Calm Calm - N/A   Clear
7:53 AM 19.9 °F 13.4 °F 17.1 °F 89% 30.54 in 10.0 mi SSE 4.6 mph - N/A   Clear
8:53 AM 25.0 °F - 21.9 °F 88% 30.54 in 10.0 mi Calm Calm - N/A   Clear
9:53 AM 30.0 °F 26.5 °F 25.0 °F 82% 30.54 in 10.0 mi ENE 3.5 mph - N/A   Clear
10:53 AM 34.0 °F 28.8 °F 26.1 °F 73% 30.53 in 10.0 mi NW 5.8 mph - N/A   Clear
11:53 AM 37.0 °F 32.4 °F 26.1 °F 65% 30.51 in 10.0 mi NNW 5.8 mph - N/A   Clear
12:53 PM 43.0 °F 39.5 °F 23.0 °F 45% 30.46 in 10.0 mi North 5.8 mph - N/A   Clear
1:53 PM 46.0 °F 43.9 °F 21.0 °F 37% 30.44 in 10.0 mi NNW 4.6 mph - N/A   Clear
2:53 PM 50.0 °F - 21.0 °F 32% 30.41 in 10.0 mi North 6.9 mph - N/A   Clear
3:53 PM 53.1 °F - 24.1 °F 32% 30.39 in 10.0 mi North 3.5 mph - N/A   Clear
4:53 PM 54.0 °F - 26.1 °F 34% 30.39 in 10.0 mi Variable 3.5 mph - N/A   Clear
5:53 PM 54.0 °F - 26.1 °F 34% 30.39 in 10.0 mi Calm Calm - N/A   Clear
6:53 PM 48.9 °F - 28.9 °F 46% 30.42 in 10.0 mi West 3.5 mph - N/A   Clear
7:53 PM 43.0 °F - 33.1 °F 68% 30.46 in 10.0 mi Calm Calm - N/A   Clear
8:53 PM 37.0 °F 34.5 °F 33.1 °F 86% 30.48 in 10.0 mi SE 3.5 mph - N/A   Clear
9:53 PM 32.0 °F 26.4 °F 30.0 °F 92% 30.47 in 10.0 mi SE 5.8 mph - N/A   Clear
10:53 PM 32.0 °F 26.4 °F 28.9 °F 88% 30.45 in 10.0 mi SE 5.8 mph - N/A   Clear
11:53 PM 32.0 °F - 28.9 °F 88% 30.44 in 10.0 mi Calm Calm - N/A   Clear